FW6339 Weather Reports


time (UTC)temp
C
wind
direction
speed
KPH
gust
KPH
rain 1hr
cm
rain 24hr
cm
rain mn
cm
humidity
%
barometer
mb
20200229080152 12 158 1.6 6.4 0.00 0.00 0.00 85 1017.9
20200229075559 12 206 1.6 9.7 0.00 0.00 0.00 86 1018.0
20200229075058 12 163 4.8 9.7 0.00 0.00 0.00 85 1018.0
20200229074650 12 207 4.8 8.0 0.00 0.00 0.00 85 1018.1
20200229074110 12 148 4.8 6.4 0.00 0.00 0.00 85 1018.4
20200229073553 12 144 1.6 4.8 0.00 0.00 0.00 85 1018.5
20200229073157 12 158 3.2 4.8 0.00 0.00 0.00 85 1018.6
20200229072550 13 149 1.6 3.2 0.00 0.00 0.00 85 1018.7
20200229072054 13 171 1.6 4.8 0.00 0.00 0.00 86 1018.8
20200229071644 13 161 3.2 4.8 0.00 0.00 0.00 86 1018.8
20200229071045 13 191 1.6 4.8 0.00 0.00 0.00 85 1019.1
20200229070552 13 207 3.2 4.8 0.00 0.00 0.00 85 1019.1
20200229070213 13 155 1.6 4.8 0.00 0.00 0.00 85 1019.1
20200229065545 13 165 3.2 4.8 0.00 0.00 0.00 85 1019.2
20200229065041 13 157 1.6 4.8 0.00 0.00 0.00 85 1019.2
20200229064602 13 177 1.6 4.8 0.00 0.00 0.00 85 1019.3
20200229064040 13 179 1.6 3.2 0.00 0.00 0.00 85 1019.4
20200229063540 13 172 1.6 3.2 0.00 0.00 0.00 85 1019.5
20200229063049 13 164 1.6 3.2 0.00 0.00 0.00 84 1019.4
20200229062547 13 135 0.0 4.8 0.00 0.00 0.00 83 1019.5
20200229062037 14 131 1.6 4.8 0.00 0.00 0.00 84 1019.3
20200229061625 14 134 1.6 4.8 0.00 0.00 0.00 82 1019.5
20200229061035 15 118 0.0 3.2 0.00 0.00 0.00 81 1019.5
20200229060534 15 134 0.0 4.8 0.00 0.00 0.00 80 1019.5
20200229060051 15 238 1.6 6.4 0.00 0.00 0.00 80 1019.5
20200229055532 15 252 3.2 6.4 0.00 0.00 0.00 80 1019.5
20200229055036 16 275 1.6 8.0 0.00 0.00 0.00 80 1019.5
20200229054622 16 268 4.8 8.0 0.00 0.00 0.00 81 1019.6
20200229054030 15 272 4.8 8.0 0.00 0.00 0.00 81 1019.5
20200229053530 15 264 3.2 6.4 0.00 0.00 0.00 81 1019.5
20200229053059 15 270 3.2 6.4 0.00 0.00 0.00 82 1019.3
20200229052539 15 249 3.2 4.8 0.00 0.00 0.00 81 1019.3
20200229052031 15 248 1.6 4.8 0.00 0.00 0.00 81 1019.3
20200229051549 15 253 3.2 4.8 0.00 0.00 0.00 80 1019.2
20200229051026 16 254 1.6 4.8 0.00 0.00 0.00 80 1019.2
20200229050526 16 249 1.6 6.4 0.00 0.00 0.00 80 1019.3
20200229045550 16 276 1.6 8.0 0.00 0.00 0.00 80 1019.5
20200229045023 16 238 3.2 8.0 0.00 0.00 0.00 79 1019.6
20200229044605 16 269 3.2 8.0 0.00 0.00 0.00 79 1019.6
20200229044034 16 255 4.8 8.0 0.00 0.00 0.00 79 1019.6
20200229043548 16 280 4.8 8.0 0.00 0.00 0.00 80 1019.5
20200229043039 16 264 3.2 6.4 0.00 0.00 0.00 80 1019.4
20200229042523 16 251 3.2 4.8 0.00 0.00 0.00 80 1019.3
20200229042023 16 252 3.2 4.8 0.00 0.00 0.00 79 1019.2
20200229041528 16 240 1.6 4.8 0.00 0.00 0.00 79 1019.1
20200229041024 16 238 1.6 4.8 0.00 0.00 0.00 78 1019.1
20200229040535 16 250 1.6 4.8 0.00 0.00 0.00 78 1019.2
20200229040051 16 236 1.6 4.8 0.00 0.00 0.00 77 1019.1
20200229035516 16 233 1.6 4.8 0.00 0.00 0.00 77 1019.1
20200229035024 17 264 1.6 6.4 0.00 0.00 0.00 77 1019.2
20200229034529 17 268 3.2 6.4 0.00 0.00 0.00 76 1019.3
20200229034020 17 263 1.6 4.8 0.00 0.00 0.00 76 1019.3
20200229033515 17 249 1.6 4.8 0.00 0.00 0.00 75 1019.3
20200229033012 17 255 0.0 1.6 0.00 0.00 0.00 74 1019.1
20200229032511 17 248 0.0 1.6 0.00 0.00 0.00 74 1019.1
20200229032011 17 238 0.0 1.6 0.00 0.00 0.00 73 1019.1
20200229031514 18 272 0.0 4.8 0.00 0.00 0.00 73 1019.0
20200229031012 18 264 0.0 4.8 0.00 0.00 0.00 73 1019.0
20200229030511 18 279 1.6 4.8 0.00 0.00 0.00 73 1019.1
20200229030025 18 263 3.2 4.8 0.00 0.00 0.00 73 1019.1
20200229025519 18 275 3.2 4.8 0.00 0.00 0.00 73 1019.1
20200229025009 18 271 1.6 4.8 0.00 0.00 0.00 72 1019.0
20200229024512 18 288 1.6 4.8 0.00 0.00 0.00 72 1019.0
20200229024004 18 307 1.6 4.8 0.00 0.00 0.00 71 1019.0
20200229023508 18 288 1.6 4.8 0.00 0.00 0.00 70 1018.9
20200229023003 18 296 3.2 8.0 0.00 0.00 0.00 70 1018.9
20200229022504 18 277 3.2 8.0 0.00 0.00 0.00 68 1018.9
20200229022000 18 286 3.2 8.0 0.00 0.00 0.00 66 1018.8
20200229021059 19 281 3.2 6.4 0.00 0.00 0.00 62 1018.6
20200229020600 19 302 3.2 6.4 0.00 0.00 0.00 61 1018.6
20200229020119 19 298 3.2 8.0 0.00 0.00 0.00 60 1018.4
20200229015618 20 302 4.8 8.0 0.00 0.00 0.00 58 1018.4
20200229015058 20 304 3.2 6.4 0.00 0.00 0.00 57 1018.4
20200229014640 20 304 3.2 6.4 0.00 0.00 0.00 56 1018.3
20200229014056 20 285 1.6 4.8 0.00 0.00 0.00 56 1018.3
20200229013556 21 314 1.6 8.0 0.00 0.00 0.00 56 1018.3
20200229013217 21 321 1.6 11.3 0.00 0.00 0.00 54 1018.4
20200229012554 21 313 4.8 11.3 0.00 0.00 0.00 54 1018.3
20200229012054 21 309 3.2 9.7 0.00 0.00 0.00 53 1018.4
20200229011821 22 307 3.2 11.3 0.00 0.00 0.00 52 1018.5
20200229011054 22 18 4.8 11.3 0.00 0.00 0.00 50 1018.4
20200229010552 22 321 3.2 9.7 0.00 0.00 0.00 49 1018.5
20200229010149 22 356 3.2 12.9 0.00 0.00 0.00 49 1018.5
20200229005558 23 301 6.4 12.9 0.00 0.00 0.00 48 1018.3
20200229005049 23 348 4.8 12.9 0.00 0.00 0.00 46 1018.3
20200229004653 23 328 1.6 11.3 0.00 0.00 0.00 44 1018.2
20200229004048 23 284 4.8 11.3 0.00 0.00 0.00 44 1018.2
20200229003548 23 323 4.8 11.3 0.00 0.00 0.00 43 1018.2
20200229003122 23 338 4.8 12.9 0.00 0.00 0.00 44 1018.1
20200229002547 23 334 6.4 12.9 0.00 0.00 0.00 45 1018.0
20200229002045 23 310 6.4 12.9 0.00 0.00 0.00 43 1018.0
20200229001735 23 334 4.8 12.9 0.00 0.00 0.00 45 1017.9
20200229001043 23 302 4.8 16.1 0.00 0.00 0.00 46 1017.8
20200229000559 23 307 6.4 17.7 0.00 0.00 0.00 45 1017.8
20200229000118 23 212 8.0 17.7 0.00 0.00 0.00 46 1017.7
20200228235547 23 307 8.0 17.7 0.00 0.00 0.00 47 1017.8
20200228235040 23 325 6.4 17.7 0.00 0.00 0.00 48 1017.8
20200228234653 23 330 8.0 19.3 0.00 0.00 0.00 47 1017.9
20200228234039 23 321 8.0 19.3 0.00 0.00 0.00 46 1017.9
20200228233545 23 340 6.4 17.7 0.00 0.00 0.00 47 1018.0
20200228233142 23 3 8.0 17.7 0.00 0.00 0.00 47 1017.9
20200228232600 23 39 9.7 19.3 0.00 0.00 0.00 47 1017.8
20200228232038 23 340 9.7 19.3 0.00 0.00 0.00 46 1017.9
20200228231606 23 316 8.0 19.3 0.00 0.00 0.00 49 1017.9
20200228231034 23 326 11.3 19.3 0.00 0.00 0.00 47 1018.0
20200228230534 23 25 9.7 19.3 0.00 0.00 0.00 45 1017.9
20200228230043 23 79 8.0 20.9 0.00 0.00 0.00 46 1018.0
20200228225534 23 304 12.9 20.9 0.00 0.00 0.00 47 1018.0
20200228225032 23 347 12.9 22.5 0.00 0.00 0.00 46 1018.0
20200228224637 23 319 9.7 22.5 0.00 0.00 0.00 47 1017.9
20200228224037 23 313 11.3 22.5 0.00 0.00 0.00 47 1018.0
20200228223537 23 316 9.7 24.1 0.00 0.00 0.00 47 1017.8
20200228223041 23 333 12.9 24.1 0.00 0.00 0.00 46 1017.8
20200228222530 23 337 14.5 24.1 0.00 0.00 0.00 46 1017.8
20200228222045 23 6 12.9 27.4 0.00 0.00 0.00 46 1017.7
20200228221650 23 298 12.9 27.4 0.00 0.00 0.00 44 1017.6
20200228221025 23 293 12.9 24.1 0.00 0.00 0.00 43 1017.6
20200228220525 23 321 11.3 20.9 0.00 0.00 0.00 44 1017.7
20200228220027 23 3 11.3 25.7 0.00 0.00 0.00 42 1017.7
20200228215529 24 274 14.5 24.1 0.00 0.00 0.00 41 1017.5
20200228215033 24 70 12.9 22.5 0.00 0.00 0.00 39 1017.5
20200228214525 24 309 12.9 24.1 0.00 0.00 0.00 42 1017.6
20200228214021 24 319 12.9 24.1 0.00 0.00 0.00 40 1017.7
20200228213519 24 304 12.9 27.4 0.00 0.00 0.00 39 1017.7
20200228213054 24 352 12.9 30.6 0.00 0.00 0.00 43 1017.7
20200228212518 24 330 16.1 30.6 0.00 0.00 0.00 39 1017.7
20200228212017 25 324 12.9 27.4 0.00 0.00 0.00 39 1017.7
20200228211551 25 300 12.9 32.2 0.00 0.00 0.00 38 1017.7
20200228211017 24 320 17.7 32.2 0.00 0.00 0.00 36 1017.8
20200228210515 25 8 16.1 27.4 0.00 0.00 0.00 38 1017.8
20200228210035 24 37 16.1 25.7 0.00 0.00 0.00 38 1017.9
20200228205512 24 294 12.9 27.4 0.00 0.00 0.00 39 1018.0
20200228205015 24 341 16.1 27.4 0.00 0.00 0.00 37 1017.9
20200228204520 24 321 14.5 25.7 0.00 0.00 0.00 37 1017.9
20200228204020 24 309 14.5 25.7 0.00 0.00 0.00 38 1017.9
20200228203510 23 37 16.1 29.0 0.00 0.00 0.00 39 1017.9
20200228203011 23 335 16.1 30.6 0.00 0.00 0.00 43 1018.0
20200228202511 23 308 16.1 30.6 0.00 0.00 0.00 43 1018.0
20200228202006 25 359 11.3 25.7 0.00 0.00 0.00 44 1017.9
20200228201511 23 312 12.9 25.7 0.00 0.00 0.00 44 1018.0
20200228201008 23 30 14.5 25.7 0.00 0.00 0.00 43 1018.2
20200228200507 24 48 14.5 24.1 0.00 0.00 0.00 41 1018.1
20200228200007 24 32 11.3 24.1 0.00 0.00 0.00 42 1018.3
20200228195507 24 15 8.0 27.4 0.00 0.00 0.00 42 1018.5
20200228195007 24 325 12.9 27.4 0.00 0.00 0.00 42 1018.4
20200228194513 23 336 11.3 24.1 0.00 0.00 0.00 41 1018.6
20200228193505 24 349 12.9 20.9 0.00 0.00 0.00 41 1018.7
20200228193001 24 42 11.3 19.3 0.00 0.00 0.00 40 1018.6
20200228192600 24 318 9.7 20.9 0.00 0.00 0.00 39 1018.9
20200228192104 24 292 9.7 20.9 0.00 0.00 0.00 36 1019.1
20200228191735 24 18 11.3 20.9 0.00 0.00 0.00 36 1019.4
20200228191132 24 57 8.0 20.9 0.00 0.00 0.00 39 1019.6
20200228190606 24 53 11.3 22.5 0.00 0.00 0.00 40 1019.6
20200228190118 24 49 8.0 22.5 0.00 0.00 0.00 42 1019.6
20200228185628 24 347 9.7 20.9 0.00 0.00 0.00 39 1019.7
20200228185054 24 13 9.7 20.9 0.00 0.00 0.00 37 1019.8
20200228184752 24 340 9.7 20.9 0.00 0.00 0.00 35 1019.8
20200228184101 24 314 9.7 20.9 0.00 0.00 0.00 35 1020.1
20200228183550 23 6 9.7 19.3 0.00 0.00 0.00 40 1020.0
20200228183112 23 323 9.7 20.9 0.00 0.00 0.00 33 1020.1
20200228182547 23 310 9.7 20.9 0.00 0.00 0.00 35 1020.2
20200228182049 23 309 11.3 19.3 0.00 0.00 0.00 35 1020.3
20200228181600 23 305 9.7 19.3 0.00 0.00 0.00 40 1020.5
20200228181044 23 340 11.3 20.9 0.00 0.00 0.00 37 1020.4
20200228180621 23 328 12.9 20.9 0.00 0.00 0.00 35 1020.5
20200228180113 23 347 9.7 17.7 0.00 0.00 0.00 38 1020.5
20200228175542 23 321 8.0 17.7 0.00 0.00 0.00 34 1020.5
20200228175043 23 350 8.0 19.3 0.00 0.00 0.00 38 1020.5
20200228174645 23 101 8.0 22.5 0.00 0.00 0.00 40 1020.6
20200228174045 23 37 8.0 17.7 0.00 0.00 0.00 41 1020.6
20200228173542 23 330 9.7 17.7 0.00 0.00 0.00 41 1020.7
20200228173103 23 31 6.4 17.7 0.00 0.00 0.00 40 1020.6
20200228172535 23 328 4.8 17.7 0.00 0.00 0.00 44 1020.6
20200228172034 22 42 6.4 17.7 0.00 0.00 0.00 43 1020.5
20200228171033 22 30 8.0 17.7 0.00 0.00 0.00 41 1020.6
20200228170534 22 23 6.4 17.7 0.00 0.00 0.00 45 1020.7
20200228170048 22 335 6.4 20.9 0.00 0.00 0.00 50 1020.7
20200228165532 22 58 8.0 20.9 0.00 0.00 0.00 51 1020.7
20200228165026 22 330 9.7 17.7 0.00 0.00 0.00 50 1020.7
20200228164532 22 28 8.0 16.1 0.00 0.00 0.00 53 1020.7
20200228164023 22 310 4.8 17.7 0.00 0.00 0.00 54 1020.6
20200228163550 21 355 11.3 17.7 0.00 0.00 0.00 55 1020.6
20200228163040 21 356 6.4 16.1 0.00 0.00 0.00 55 1020.6
20200228162534 21 339 4.8 17.7 0.00 0.00 0.00 57 1020.6
20200228162024 21 17 6.4 17.7 0.00 0.00 0.00 57 1020.4
20200228161551 21 30 8.0 17.7 0.00 0.00 0.00 59 1020.4
20200228161014 21 20 8.0 16.1 0.00 0.00 0.00 61 1020.4
20200228160512 20 326 6.4 16.1 0.00 0.00 0.00 62 1020.4
20200228160029 20 29 6.4 14.5 0.00 0.00 0.00 63 1020.3
20200228155513 20 314 4.8 9.7 0.00 0.00 0.00 64 1020.1
20200228155007 20 48 4.8 8.0 0.00 0.00 0.00 66 1020.1
20200228154528 20 6 3.2 8.0 0.00 0.00 0.00 67 1020.0
20200228153206 18 38 1.6 6.4 0.00 0.00 0.00 72 1019.6
20200228152618 18 25 1.6 4.8 0.00 0.00 0.00 74 1019.7
20200228152055 18 316 1.6 4.8 0.00 0.00 0.00 74 1019.7
20200228151051 17 283 0.0 3.2 0.00 0.00 0.00 78 1019.7
20200228150549 17 297 0.0 1.6 0.00 0.00 0.00 80 1019.5
20200228150203 16 290 0.0 1.6 0.00 0.00 0.00 82 1019.4
20200228145544 16 258 0.0 1.6 0.00 0.00 0.00 82 1019.4
20200228145048 16 245 0.0 1.6 0.00 0.00 0.00 82 1019.3
20200228144550 15 245 0.0 1.6 0.00 0.00 0.00 83 1019.2
20200228144039 15 266 0.0 1.6 0.00 0.00 0.00 83 1019.2
20200228143539 15 264 0.0 3.2 0.00 0.00 0.00 84 1019.3
20200228143048 15 269 1.6 4.8 0.00 0.00 0.00 84 1019.2
20200228142540 15 266 1.6 4.8 0.00 0.00 0.00 83 1019.1
20200228142038 15 262 0.0 3.2 0.00 0.00 0.00 82 1019.1
20200228141604 15 272 1.6 3.2 0.00 0.00 0.00 83 1018.9
20200228141033 14 293 1.6 3.2 0.00 0.00 0.00 84 1018.9
20200228140534 14 288 1.6 3.2 0.00 0.00 0.00 84 1018.8
20200228140100 14 288 1.6 3.2 0.00 0.00 0.00 85 1018.9
20200228135535 13 284 1.6 3.2 0.00 0.00 0.00 86 1018.8
20200228135032 13 281 1.6 3.2 0.00 0.00 0.00 86 1018.7
20200228134609 13 281 1.6 1.6 0.00 0.00 0.00 86 1018.7
20200228134033 13 281 0.0 1.6 0.00 0.00 0.00 86 1018.7
20200228133559 13 280 1.6 3.2 0.00 0.00 0.00 86 1018.7
20200228133104 13 283 1.6 3.2 0.00 0.00 0.00 86 1018.8
20200228132604 13 289 1.6 3.2 0.00 0.00 0.00 86 1018.8
20200228132026 13 288 1.6 3.2 0.00 0.00 0.00 87 1018.7
20200228131620 13 290 1.6 3.2 0.00 0.00 0.00 87 1018.7
20200228131026 13 295 1.6 3.2 0.00 0.00 0.00 86 1018.7
20200228130525 13 285 1.6 4.8 0.00 0.00 0.00 87 1018.8
20200228130034 13 285 1.6 4.8 0.00 0.00 0.00 87 1018.7
20200228125022 13 289 1.6 4.8 0.00 0.00 0.00 87 1018.7
20200228124539 13 286 1.6 4.8 0.00 0.00 0.00 87 1018.7
20200228124022 13 288 3.2 4.8 0.00 0.00 0.00 87 1018.6
20200228123521 13 289 1.6 4.8 0.00 0.00 0.00 87 1018.6
20200228123047 13 294 1.6 4.8 0.00 0.00 0.00 87 1018.5
20200228122519 13 307 1.6 4.8 0.00 0.00 0.00 87 1018.5
20200228122025 13 300 1.6 4.8 0.00 0.00 0.00 86 1018.5
20200228121558 13 298 3.2 4.8 0.00 0.00 0.00 86 1018.5
20200228121039 13 283 1.6 3.2 0.00 0.00 0.00 87 1018.5
20200228120517 13 282 1.6 3.2 0.00 0.00 0.00 86 1018.5
20200228120038 13 288 1.6 6.4 0.00 0.00 0.00 87 1018.4
20200228115537 13 286 1.6 6.4 0.00 0.00 0.00 87 1018.3
20200228115018 13 278 1.6 4.8 0.00 0.00 0.00 88 1018.2
20200228114520 13 282 3.2 4.8 0.00 0.00 0.00 88 1018.1
20200228114035 13 286 1.6 3.2 0.00 0.00 0.00 88 1018.0
20200228113517 13 292 0.0 3.2 0.00 0.00 0.00 88 1018.0
20200228113013 13 292 1.6 3.2 0.00 0.00 0.00 88 1018.1
20200228112512 13 273 0.0 4.8 0.00 0.00 0.00 88 1018.0
20200228112016 13 292 1.6 4.8 0.00 0.00 0.00 89 1018.0
20200228111515 12 295 0.0 3.2 0.00 0.00 0.00 88 1018.1
20200228111035 13 245 1.6 3.2 0.00 0.00 0.00 86 1018.0
20200228110507 13 261 1.6 3.2 0.00 0.00 0.00 87 1017.9
20200228110017 13 267 1.6 3.2 0.00 0.00 0.00 86 1017.9
20200228105506 13 269 1.6 3.2 0.00 0.00 0.00 87 1017.8
20200228105007 13 278 1.6 4.8 0.00 0.00 0.00 87 1017.9
20200228104505 13 289 1.6 4.8 0.00 0.00 0.00 87 1017.8
20200228104011 13 292 3.2 6.4 0.00 0.00 0.00 87 1017.9
20200228103504 13 297 3.2 6.4 0.00 0.00 0.00 87 1017.9
20200228102609 13 305 3.2 6.4 0.00 0.00 0.00 87 1018.1
20200228102108 13 294 3.2 4.8 0.00 0.00 0.00 88 1018.0
20200228101615 13 297 1.6 4.8 0.00 0.00 0.00 87 1017.9
20200228101057 12 280 1.6 4.8 0.00 0.00 0.00 88 1018.0
20200228100555 12 279 1.6 3.2 0.00 0.00 0.00 88 1018.0
20200228100142 12 269 1.6 3.2 0.00 0.00 0.00 87 1018.0
20200228095552 12 262 1.6 3.2 0.00 0.00 0.00 86 1018.1
20200228095051 12 257 1.6 3.2 0.00 0.00 0.00 85 1018.1
20200228094700 13 254 0.0 1.6 0.00 0.00 0.00 85 1018.2
20200228094049 13 276 0.0 3.2 0.00 0.00 0.00 86 1018.3
20200228093611 13 278 1.6 3.2 0.00 0.00 0.00 86 1018.4
20200228093322 13 276 1.6 3.2 0.00 0.00 0.00 88 1018.5
20200228092546 12 270 3.2 3.2 0.00 0.00 0.00 89 1018.5
20200228092109 12 251 1.6 4.8 0.00 0.00 0.00 87 1018.5
20200228091623 12 245 3.2 4.8 0.00 0.00 0.00 86 1018.6
20200228091043 12 252 1.6 3.2 0.00 0.00 0.00 86 1018.6
20200228090541 12 245 1.6 3.2 0.00 0.00 0.00 85 1018.7
20200228090053 12 244 0.0 1.6 0.00 0.00 0.00 85 1018.7
20200228085542 12 270 1.6 1.6 0.00 0.00 0.00 85 1018.7
20200228085038 12 259 1.6 3.2 0.00 0.00 0.00 86 1018.7
20200228084620 12 250 1.6 3.2 0.00 0.00 0.00 84 1018.9
20200228084041 13 238 1.6 1.6 0.00 0.00 0.00 82 1018.7
20200228083542 14 252 1.6 1.6 0.00 0.00 0.00 83 1018.8
20200228083129 14 252 1.6 1.6 0.00 0.00 0.00 84 1019.0
20200228082534 14 267 1.6 1.6 0.00 0.00 0.00 85 1018.9
20200228082030 13 255 0.0 3.2 0.00 0.00 0.00 89 1018.9
20200228081601 12 250 1.6 3.2 0.00 0.00 0.00 86 1019.0
20200228081048 12 245 1.6 3.2 0.00 0.00 0.00 85 1019.0
20200228080529 13 241 1.6 3.2 0.00 0.00 0.00 84 1019.0